Flag for United Kingdom Weather past 2 weeks in Edinburgh, Scotland, United Kingdom

Now
50 °F

Passing clouds.


Feels Like: 45 °F
Forecast: 48 / 55 °F
Wind: 15 mph from Southwest

Location: Edinburgh Airport

Current Time: Oct 24, 2014 at 10:20:24 PM

Latest Report: Oct 24, 2014 at 9:50 PM


Visibility: N/A

Pressure: 29.71 "Hg

Humidity: 76%

Dew point: 43 °F

Location of EdinburghLocation

Historic Weather in Edinburgh — Graph

°F

Edinburgh temperature yesterday

Maximum temperature yesterday: 57 °F (at 11:50 AM)
Minimum temperature yesterday: 50 °F (at 11:20 PM)
Average temperature yesterday: 55 °F

Past Weeks' High & Low Weather Summary

 TemperatureHumidityPressure
High64 °F (Oct 17, 12:50 PM)100% (Oct 9, 9:20 PM)30.09 "Hg (Oct 9, 9:20 PM)
Low34 °F (Oct 11, 4:50 AM)51% (Oct 15, 3:20 PM)29.00 "Hg (Oct 21, 5:20 AM)
Average51 °F84%29.70 "Hg
* Reported Oct 9 9:20 PM — Oct 24 9:20 PM, Edinburgh, Weather by CustomWeather, © 2014

Note: Actual official high and low records may vary slightly from our data, if they occured in-between our weather recording intervals... More about our weather records

Advertising

Edinburgh weather history for previous 24 hours

 ConditionsComfort  
Time TempWeatherWind HumidityBarometerVisibility
9:20 PM
Oct 24
50 °FPassing clouds.14 mph76%29.71 "HgN/A
8:50 PM50 °FPassing clouds.12 mph76%29.71 "HgN/A
8:20 PM50 °FPassing clouds.14 mph76%29.71 "HgN/A
7:50 PM50 °FPassing clouds.15 mph76%29.71 "HgN/A
7:20 PM50 °FPassing clouds.15 mph76%29.71 "HgN/A
6:50 PM48 °FPassing clouds.15 mph82%29.71 "HgN/A
6:20 PM50 °FPassing clouds.18 mph76%29.71 "HgN/A
5:50 PM50 °FScattered clouds.18 mph76%29.71 "HgN/A
5:20 PM50 °FScattered clouds.18 mph76%29.71 "HgN/A
4:50 PM52 °FPartly sunny.15 mph72%29.71 "HgN/A
4:20 PM50 °FScattered clouds.15 mph71%29.71 "HgN/A
3:50 PM52 °FBroken clouds.14 mph72%29.71 "HgN/A
3:20 PM52 °FScattered clouds.18 mph72%29.71 "HgN/A
2:50 PM52 °FScattered clouds.16 mph72%29.74 "HgN/A
2:20 PM52 °FSprinkles. Partly sunny.18 mph72%29.74 "Hg6 mi
1:50 PM52 °FPassing clouds.15 mph77%29.74 "HgN/A
1:20 PM52 °FScattered clouds.20 mph72%29.74 "HgN/A
12:50 PM52 °FScattered clouds.18 mph72%29.74 "HgN/A
12:20 PM52 °FScattered clouds.17 mph72%29.74 "HgN/A
11:50 AM52 °FPassing clouds.18 mph72%29.77 "HgN/A
11:20 AM52 °FPassing clouds.12 mph77%29.77 "HgN/A
10:50 AM50 °FPassing clouds.14 mph82%29.77 "HgN/A
10:20 AM50 °FSunny.14 mph82%29.77 "Hg10 mi
9:50 AM48 °FScattered clouds.12 mph87%29.77 "HgN/A
9:20 AM48 °FSprinkles. Broken clouds.15 mph87%29.77 "Hg5 mi
8:50 AM46 °FPassing clouds.13 mph87%29.77 "HgN/A
8:20 AM46 °FPassing clouds.13 mph87%29.77 "HgN/A
7:50 AM48 °FClear.12 mph87%29.74 "Hg10 mi
7:20 AM48 °FPassing clouds.10 mph87%29.74 "HgN/A
6:50 AM48 °FLight rain. Passing clouds.8 mph87%29.74 "HgN/A
6:20 AM48 °FPassing clouds.8 mph87%29.74 "HgN/A
5:50 AM46 °FPassing clouds.6 mph93%29.74 "HgN/A
5:20 AM48 °FPartly cloudy.7 mph87%29.74 "HgN/A
4:50 AM48 °FPartly cloudy.8 mph87%29.74 "HgN/A
4:20 AM48 °FPassing clouds.12 mph87%29.74 "HgN/A
3:50 AM50 °FLight rain. Passing clouds.10 mph82%29.74 "Hg6 mi
3:20 AM48 °FPassing clouds.12 mph87%29.74 "HgN/A
2:50 AM46 °FPassing clouds.9 mph93%29.74 "HgN/A
2:20 AM50 °FPassing clouds.14 mph88%29.74 "HgN/A
1:50 AM48 °FPassing clouds.9 mph94%29.74 "HgN/A
1:20 AM50 °FPassing clouds.13 mph88%29.71 "HgN/A
12:50 AM50 °FPassing clouds.13 mph94%29.71 "HgN/A
12:20 AM52 °FPassing clouds.12 mph88%29.71 "HgN/A
11:50 PM
Oct 23
52 °FPartly cloudy.12 mph88%29.71 "HgN/A
11:20 PM50 °FPassing clouds.10 mph94%29.71 "HgN/A
10:50 PM52 °FPartly cloudy.9 mph94%29.71 "HgN/A
10:20 PM54 °FPassing clouds.13 mph88%29.71 "HgN/A
Weather by CustomWeather, © 2014

See weather overviewHow to use our weather pages